Time,TemperatureF,DewpointF,PressureIn,WindDirection,WindDirectionDegrees,WindSpeedMPH,WindSpeedGustMPH,Humidity,HourlyPrecipIn,Conditions,Clouds,dailyrainin,SoftwareType,DateUTC
2013-06-27 00:04:00,-999.0,-99.9,29.83,North,-999,-999.0,-999.0,-999,0.00,,,0.00,weatherlink.com 1.10,2013-06-27 04:04:00,
2013-06-27 00:19:00,-999.0,-99.9,29.82,North,-999,-999.0,-999.0,-999,0.00,,,0.00,weatherlink.com 1.10,2013-06-27 04:19:00,
2013-06-27 00:34:00,-999.0,-99.9,29.82,North,-999,-999.0,-999.0,-999,0.00,,,0.00,weatherlink.com 1.10,2013-06-27 04:34:00,
2013-06-27 00:49:00,-999.0,-99.9,29.81,North,-999,-999.0,-999.0,-999,0.00,,,0.00,weatherlink.com 1.10,2013-06-27 04:49:00,
2013-06-27 01:04:00,-999.0,-99.9,29.80,North,-999,-999.0,-999.0,-999,0.00,,,0.00,weatherlink.com 1.10,2013-06-27 05:04:00,
2013-06-27 01:19:00,-999.0,-99.9,29.81,North,-999,-999.0,-999.0,-999,0.00,,,0.00,weatherlink.com 1.10,2013-06-27 05:19:00,
2013-06-27 01:34:00,-999.0,-99.9,29.80,North,-999,-999.0,-999.0,-999,0.00,,,0.00,weatherlink.com 1.10,2013-06-27 05:34:00,
2013-06-27 01:49:00,-999.0,-99.9,29.79,North,-999,-999.0,-999.0,-999,0.00,,,0.00,weatherlink.com 1.10,2013-06-27 05:49:00,
2013-06-27 02:04:00,-999.0,-99.9,29.78,North,-999,-999.0,-999.0,-999,0.00,,,0.00,weatherlink.com 1.10,2013-06-27 06:04:00,
2013-06-27 02:19:00,-999.0,-99.9,29.78,North,-999,-999.0,-999.0,-999,0.00,,,0.00,weatherlink.com 1.10,2013-06-27 06:19:00,
2013-06-27 02:35:00,-999.0,-99.9,29.77,North,-999,-999.0,-999.0,-999,0.00,,,0.00,weatherlink.com 1.10,2013-06-27 06:35:00,
2013-06-27 02:50:00,-999.0,-99.9,29.77,North,-999,-999.0,-999.0,-999,0.00,,,0.00,weatherlink.com 1.10,2013-06-27 06:50:00,
2013-06-27 03:05:00,-999.0,-99.9,29.76,North,-999,-999.0,-999.0,-999,0.00,,,0.00,weatherlink.com 1.10,2013-06-27 07:05:00,
2013-06-27 03:20:00,-999.0,-99.9,29.76,North,-999,-999.0,-999.0,-999,0.00,,,0.00,weatherlink.com 1.10,2013-06-27 07:20:00,
2013-06-27 03:35:00,-999.0,-99.9,29.75,North,-999,-999.0,-999.0,-999,0.00,,,0.00,weatherlink.com 1.10,2013-06-27 07:35:00,
2013-06-27 03:50:00,-999.0,-99.9,29.74,North,-999,-999.0,-999.0,-999,0.00,,,0.00,weatherlink.com 1.10,2013-06-27 07:50:00,
2013-06-27 04:05:00,-999.0,-99.9,29.73,North,-999,-999.0,-999.0,-999,0.00,,,0.00,weatherlink.com 1.10,2013-06-27 08:05:00,
2013-06-27 04:20:00,-999.0,-99.9,29.73,North,-999,-999.0,-999.0,-999,0.00,,,0.00,weatherlink.com 1.10,2013-06-27 08:20:00,
2013-06-27 04:35:00,-999.0,-99.9,29.73,North,-999,-999.0,-999.0,-999,0.00,,,0.00,weatherlink.com 1.10,2013-06-27 08:35:00,
2013-06-27 04:50:00,-999.0,-99.9,29.72,North,-999,-999.0,-999.0,-999,0.00,,,0.00,weatherlink.com 1.10,2013-06-27 08:50:00,
2013-06-27 05:05:00,-999.0,-99.9,29.73,North,-999,-999.0,-999.0,-999,0.00,,,0.00,weatherlink.com 1.10,2013-06-27 09:05:00,
2013-06-27 05:20:00,-999.0,-99.9,29.73,North,-999,-999.0,-999.0,-999,0.00,,,0.00,weatherlink.com 1.10,2013-06-27 09:20:00,
2013-06-27 05:35:00,-999.0,-99.9,29.71,North,-999,-999.0,-999.0,-999,0.00,,,0.00,weatherlink.com 1.10,2013-06-27 09:35:00,
2013-06-27 05:51:00,-999.0,-99.9,29.71,North,-999,-999.0,-999.0,-999,0.00,,,0.00,weatherlink.com 1.10,2013-06-27 09:51:00,
2013-06-27 06:06:00,-999.0,-99.9,29.71,North,-999,-999.0,-999.0,-999,0.00,,,0.00,weatherlink.com 1.10,2013-06-27 10:06:00,
2013-06-27 06:21:00,-999.0,-99.9,29.70,North,-999,-999.0,-999.0,-999,0.00,,,0.00,weatherlink.com 1.10,2013-06-27 10:21:00,
2013-06-27 06:36:00,-999.0,-99.9,29.70,North,-999,-999.0,-999.0,-999,0.00,,,0.00,weatherlink.com 1.10,2013-06-27 10:36:00,
2013-06-27 06:51:00,67.3,67.0,29.71,East,95,0.0,0.0,100,0.00,,,0.00,weatherlink.com 1.10,2013-06-27 10:51:00,
2013-06-27 07:06:00,67.5,68.0,29.71,East,95,0.0,0.0,100,0.00,,,0.00,weatherlink.com 1.10,2013-06-27 11:06:00,
2013-06-27 07:21:00,67.7,68.0,29.71,East,95,0.0,0.0,100,0.00,,,0.00,weatherlink.com 1.10,2013-06-27 11:21:00,
2013-06-27 07:36:00,-999.0,-99.9,29.71,North,-999,-999.0,-999.0,-999,0.00,,,0.00,weatherlink.com 1.10,2013-06-27 11:36:00,
2013-06-27 07:51:00,-999.0,-99.9,29.70,North,-999,-999.0,-999.0,-999,0.00,,,0.00,weatherlink.com 1.10,2013-06-27 11:51:00,
2013-06-27 08:06:00,68.0,68.0,29.70,South,181,0.0,1.0,100,0.00,,,0.00,weatherlink.com 1.10,2013-06-27 12:06:00,
2013-06-27 08:21:00,-999.0,-99.9,29.71,North,-999,-999.0,-999.0,-999,0.00,,,0.00,weatherlink.com 1.10,2013-06-27 12:21:00,
2013-06-27 08:36:00,68.0,68.0,29.71,SSE,161,0.0,1.0,100,0.00,,,0.00,weatherlink.com 1.10,2013-06-27 12:36:00,
2013-06-27 08:51:00,68.0,68.0,29.71,East,82,0.0,2.0,100,0.00,,,0.00,weatherlink.com 1.10,2013-06-27 12:51:00,
2013-06-27 09:06:00,67.7,68.0,29.71,WSW,240,0.0,8.0,100,0.00,,,0.00,weatherlink.com 1.10,2013-06-27 13:06:00,
2013-06-27 09:21:00,69.3,65.0,29.72,WSW,253,0.0,13.0,87,0.00,,,0.00,weatherlink.com 1.10,2013-06-27 13:21:00,
2013-06-27 09:36:00,71.0,64.0,29.71,West,271,1.0,10.0,79,0.00,,,0.00,weatherlink.com 1.10,2013-06-27 13:36:00,
2013-06-27 09:51:00,71.7,64.0,29.71,SSW,198,3.0,12.0,77,0.00,,,0.00,weatherlink.com 1.10,2013-06-27 13:51:00,
2013-06-27 10:06:00,70.8,65.0,29.72,SSW,196,3.0,22.0,82,0.00,,,0.00,weatherlink.com 1.10,2013-06-27 14:06:00,
2013-06-27 10:21:00,69.3,65.0,29.72,South,175,1.0,7.0,86,0.01,,,0.01,weatherlink.com 1.10,2013-06-27 14:21:00,
2013-06-27 10:36:00,69.5,65.0,29.71,SW,235,0.0,11.0,85,0.01,,,0.01,weatherlink.com 1.10,2013-06-27 14:36:00,
2013-06-27 10:51:00,70.3,65.0,29.71,WSW,250,5.0,16.0,83,0.01,,,0.01,weatherlink.com 1.10,2013-06-27 14:51:00,
2013-06-27 11:06:00,70.8,65.0,29.72,West,267,0.0,6.0,81,0.01,,,0.01,weatherlink.com 1.10,2013-06-27 15:06:00,
2013-06-27 11:21:00,70.7,65.0,29.72,South,173,0.0,4.0,82,0.00,,,0.01,weatherlink.com 1.10,2013-06-27 15:21:00,
2013-06-27 11:36:00,70.8,64.0,29.72,East,101,0.0,5.0,79,0.00,,,0.01,weatherlink.com 1.10,2013-06-27 15:36:00,
2013-06-27 11:51:00,70.7,65.0,29.73,East,101,0.0,1.0,83,0.00,,,0.01,weatherlink.com 1.10,2013-06-27 15:51:00,
2013-06-27 12:06:00,71.0,66.0,29.73,East,101,0.0,0.0,83,0.00,,,0.01,weatherlink.com 1.10,2013-06-27 16:06:00,
2013-06-27 12:21:00,71.4,67.0,29.73,East,101,0.0,1.0,85,0.00,,,0.01,weatherlink.com 1.10,2013-06-27 16:21:00,
2013-06-27 12:36:00,71.9,67.0,29.73,West,270,0.0,5.0,83,0.00,,,0.01,weatherlink.com 1.10,2013-06-27 16:36:00,
2013-06-27 12:51:00,71.9,68.0,29.73,West,270,0.0,0.0,87,0.01,,,0.02,weatherlink.com 1.10,2013-06-27 16:51:00,
2013-06-27 13:06:00,71.2,68.0,29.74,West,270,0.0,0.0,90,0.02,,,0.03,weatherlink.com 1.10,2013-06-27 17:06:00,
2013-06-27 13:22:00,71.2,69.0,29.73,West,271,1.0,1.0,92,0.02,,,0.03,weatherlink.com 1.10,2013-06-27 17:22:00,
2013-06-27 13:37:00,71.0,69.0,29.73,East,90,0.0,1.0,93,0.02,,,0.03,weatherlink.com 1.10,2013-06-27 17:37:00,
2013-06-27 13:52:00,71.9,69.0,29.73,East,90,0.0,1.0,90,0.01,,,0.03,weatherlink.com 1.10,2013-06-27 17:52:00,
2013-06-27 14:07:00,73.6,70.0,29.72,East,90,0.0,1.0,89,0.00,,,0.03,weatherlink.com 1.10,2013-06-27 18:07:00,
2013-06-27 14:22:00,76.0,70.0,29.71,East,84,1.0,4.0,82,0.00,,,0.03,weatherlink.com 1.10,2013-06-27 18:22:00,
2013-06-27 14:37:00,78.7,70.0,29.70,SW,229,0.0,4.0,75,0.00,,,0.03,weatherlink.com 1.10,2013-06-27 18:37:00,
2013-06-27 14:52:00,81.5,70.0,29.70,NW,306,3.0,5.0,69,0.00,,,0.03,weatherlink.com 1.10,2013-06-27 18:52:00,
2013-06-27 15:07:00,81.9,70.0,29.70,SSW,209,0.0,4.0,68,0.00,,,0.03,weatherlink.com 1.10,2013-06-27 19:07:00,
2013-06-27 15:22:00,82.1,69.0,29.70,NNE,15,1.0,9.0,64,0.00,,,0.03,weatherlink.com 1.10,2013-06-27 19:22:00,
2013-06-27 15:37:00,82.5,68.0,29.69,SSW,202,2.0,5.0,62,0.00,,,0.03,weatherlink.com 1.10,2013-06-27 19:37:00,
2013-06-27 15:52:00,82.7,69.0,29.68,SW,218,0.0,7.0,64,0.00,,,0.03,weatherlink.com 1.10,2013-06-27 19:52:00,
2013-06-27 16:07:00,83.7,69.0,29.68,WSW,249,5.0,8.0,61,0.00,,,0.03,weatherlink.com 1.10,2013-06-27 20:07:00,
2013-06-27 16:22:00,82.9,69.0,29.67,West,264,0.0,11.0,64,0.00,,,0.03,weatherlink.com 1.10,2013-06-27 20:22:00,
2013-06-27 16:37:00,82.7,71.0,29.66,West,280,1.0,6.0,67,0.00,,,0.03,weatherlink.com 1.10,2013-06-27 20:37:00,
2013-06-27 16:52:00,82.7,69.0,29.66,WSW,247,0.0,5.0,64,0.00,,,0.03,weatherlink.com 1.10,2013-06-27 20:52:00,
2013-06-27 17:07:00,82.1,69.0,29.66,NW,306,0.0,6.0,65,0.00,,,0.03,weatherlink.com 1.10,2013-06-27 21:07:00,
2013-06-27 17:22:00,82.1,68.0,29.66,WSW,251,0.0,4.0,63,0.00,,,0.03,weatherlink.com 1.10,2013-06-27 21:22:00,
2013-06-27 17:37:00,81.5,68.0,29.65,WSW,252,0.0,7.0,64,0.00,,,0.03,weatherlink.com 1.10,2013-06-27 21:37:00,
2013-06-27 18:07:00,80.8,68.0,29.64,West,271,1.0,7.0,65,0.00,,,0.03,weatherlink.com 1.10,2013-06-27 22:07:00,
2013-06-27 18:22:00,80.4,67.0,29.65,WSW,254,0.0,6.0,63,0.00,,,0.03,weatherlink.com 1.10,2013-06-27 22:22:00,
2013-06-27 18:37:00,79.8,67.0,29.65,West,269,4.0,8.0,64,0.00,,,0.03,weatherlink.com 1.10,2013-06-27 22:37:00,
2013-06-27 18:52:00,79.5,66.0,29.65,SW,219,1.0,4.0,64,0.00,,,0.03,weatherlink.com 1.10,2013-06-27 22:52:00,
2013-06-27 19:07:00,79.1,66.0,29.65,SSW,199,0.0,4.0,65,0.00,,,0.03,weatherlink.com 1.10,2013-06-27 23:07:00,
2013-06-27 19:22:00,78.4,67.0,29.65,SW,234,0.0,2.0,68,0.00,,,0.03,weatherlink.com 1.10,2013-06-27 23:22:00,
2013-06-27 19:37:00,78.2,67.0,29.65,WSW,250,0.0,1.0,68,0.00,,,0.03,weatherlink.com 1.10,2013-06-27 23:37:00,
2013-06-27 20:07:00,-999.0,-99.9,29.66,North,-999,-999.0,-999.0,-999,0.00,,,0.03,weatherlink.com 1.10,2013-06-28 00:07:00,
2013-06-27 20:22:00,-999.0,-99.9,29.66,North,-999,-999.0,-999.0,-999,0.00,,,0.03,weatherlink.com 1.10,2013-06-28 00:22:00,
2013-06-27 20:37:00,-999.0,-99.9,29.66,North,-999,-999.0,-999.0,-999,0.00,,,0.03,weatherlink.com 1.10,2013-06-28 00:37:00,
2013-06-27 20:52:00,-999.0,-99.9,29.67,North,-999,-999.0,-999.0,-999,0.00,,,0.03,weatherlink.com 1.10,2013-06-28 00:52:00,
2013-06-27 21:07:00,-999.0,-99.9,29.68,North,-999,-999.0,-999.0,-999,0.00,,,0.03,weatherlink.com 1.10,2013-06-28 01:07:00,
2013-06-27 21:23:00,-999.0,-99.9,29.68,North,-999,-999.0,-999.0,-999,0.00,,,0.03,weatherlink.com 1.10,2013-06-28 01:23:00,
2013-06-27 21:38:00,-999.0,-99.9,29.68,North,-999,-999.0,-999.0,-999,0.00,,,0.03,weatherlink.com 1.10,2013-06-28 01:38:00,
2013-06-27 22:08:00,-999.0,-99.9,29.68,North,-999,-999.0,-999.0,-999,0.00,,,0.03,weatherlink.com 1.10,2013-06-28 02:08:00,
2013-06-27 22:23:00,-999.0,-99.9,29.70,North,-999,-999.0,-999.0,-999,0.00,,,0.03,weatherlink.com 1.10,2013-06-28 02:23:00,
2013-06-27 22:53:00,-999.0,-99.9,29.69,North,-999,-999.0,-999.0,-999,0.00,,,0.03,weatherlink.com 1.10,2013-06-28 02:53:00,
2013-06-27 23:08:00,-999.0,-99.9,29.68,North,-999,-999.0,-999.0,-999,0.00,,,0.03,weatherlink.com 1.10,2013-06-28 03:08:00,
2013-06-27 23:38:00,-999.0,-99.9,29.68,North,-999,-999.0,-999.0,-999,0.00,,,0.03,weatherlink.com 1.10,2013-06-28 03:38:00,
2013-06-27 23:53:00,-999.0,-99.9,29.67,North,-999,-999.0,-999.0,-999,0.00,,,0.03,weatherlink.com 1.10,2013-06-28 03:53:00,